Flag for Germany Weather past 2 weeks in Ahaus, North Rhine-Westphalia, Germany

Now
55 °F

Overcast.


Feels Like: 54 °F
Forecast: 48 / 58 °F
Wind: 5 mph from South

Location: Twenthe

Current Time: Oct 24, 2014 at 6:30:23 PM

Latest Report: Oct 24, 2014 at 5:00 PM


Visibility: 19 mi

Pressure: 30.06 "Hg

Humidity: 77%

Dew point: 48 °F

Location of AhausLocation

Historic Weather in Ahaus — Graph

°F

Ahaus temperature yesterday

Maximum temperature yesterday: 55 °F (at 4:00 PM)
Minimum temperature yesterday: 43 °F (at 2:00 AM)
Average temperature yesterday: 51 °F

Past Weeks' High & Low Weather Summary

 TemperatureHumidityPressure
High72 °F (Oct 19, 2:00 PM)100% (Oct 10, 10:00 PM)30.20 "Hg (Oct 10, 10:00 PM)
Low43 °F (Oct 23, 2:00 AM)65% (Oct 14, 12:00 PM)29.41 "Hg (Oct 21, 4:00 PM)
Average56 °F86%29.88 "Hg
* Reported Oct 9 5:00 PM — Oct 24 5:00 PM, Ahaus, Weather by CustomWeather, © 2014

Note: Actual official high and low records may vary slightly from our data, if they occured in-between our weather recording intervals... More about our weather records

Advertising

Ahaus weather history for previous 24 hours

 ConditionsComfort  
Time TempWeatherWind HumidityBarometerVisibility
5:00 PM
Oct 24
55 °FOvercast.5 mph77%30.06 "Hg19 mi
4:00 PM56 °FOvercast.5 mph77%30.06 "Hg17 mi
3:00 PM55 °FLight freezing rain. Scattered clouds.6 mph76%30.08 "Hg17 mi
2:00 PM55 °FScattered clouds.6 mph75%30.10 "Hg16 mi
1:00 PM55 °FScattered clouds.7 mph73%30.11 "Hg19 mi
12:00 PM55 °FPartly sunny.6 mph74%30.13 "Hg17 mi
11:00 AM54 °FOvercast.7 mph76%30.13 "Hg17 mi
10:00 AM53 °FOvercast.6 mph80%30.13 "Hg15 mi
9:00 AM52 °FOvercast.5 mph79%30.13 "Hg16 mi
8:00 AM52 °FOvercast.6 mph80%30.12 "Hg13 mi
7:00 AM52 °FOvercast.6 mph83%30.12 "Hg11 mi
6:00 AM52 °FOvercast.5 mph83%30.13 "Hg9 mi
5:00 AM52 °FOvercast.5 mph87%30.13 "Hg8 mi
4:00 AM52 °FOvercast.5 mph86%30.14 "Hg8 mi
3:00 AM53 °FOvercast.5 mph86%30.14 "Hg8 mi
2:00 AM53 °FOvercast.5 mph85%30.15 "Hg8 mi
1:00 AM54 °FOvercast.5 mph85%30.16 "Hg7 mi
12:00 AM54 °FOvercast.6 mph86%30.16 "Hg7 mi
11:00 PM
Oct 23
54 °FOvercast.5 mph87%30.17 "Hg6 mi
10:00 PM54 °FOvercast.5 mph86%30.17 "Hg7 mi
9:00 PM54 °FOvercast.5 mph85%30.16 "Hg7 mi
8:00 PM54 °FOvercast.5 mph84%30.16 "Hg6 mi
7:00 PM54 °FFog.2 mph86%30.16 "Hg6 mi
6:00 PM55 °FOvercast.5 mph83%30.16 "Hg6 mi
Weather by CustomWeather, © 2014

See weather overviewHow to use our weather pages